Regional Weather Roundup
Issued by NWS

Home | Current Version | Previous Version | Text Only | Print | Product List | Glossary On
Versions: 1 2 3 4 5 6 7 8 9 10 11 12 13 14 15 16 17 18 19 20 21 22 23 24 25 26 27 28 29 30 31 32 33 34 35 36 37 38 39 40 41 42 43 44 45 46 47 48 49 50
000
ASUS43 KMKX 250759
RWRWI

WISCONSIN REGIONAL WEATHER ROUNDUP
NATIONAL WEATHER SERVICE MILWAUKEE/SULLIVAN WI
300 AM CDT THU MAY 25 2017

NOTE: "FAIR" INDICATES FEW OR NO CLOUDS BELOW 12,000 FEET WITH NO
SIGNIFICANT WEATHER AND/OR OBSTRUCTIONS TO VISIBILITY.

WIZ001-002-006>008-014>016-023>028-250900-
NORTHWEST WISCONSIN

CITY           SKY/WX    TMP DP  RH WIND       PRES   REMARKS
SUPERIOR ARPT  NOT AVBL
ASHLAND        FOG       34  33  96 CALM      29.75F VSB 1/2
HAYWARD        CLOUDY    41  38  89 NE5       29.73S
SIREN          CLEAR     49  44  85 CALM      29.72S
CUMBERLAND     CLOUDY    50  45  81 CALM      29.71F
RICE LAKE      CLOUDY    51  47  86 NE3       29.73F
CHETEK         CLOUDY    52  48  86 CALM      29.72S
LADYSMITH      CLOUDY    52  47  85 CALM      29.74S
EAU CLAIRE     CLOUDY    53  50  89 CALM      29.70S
MENOMONIE      CLOUDY    51  50  95 CALM      29.71S
NEW RICHMOND   CLEAR     45  44  97 CALM      29.71S
OSCEOLA        CLEAR     48  48 100 CALM      29.74S
$$

WIZ003>005-009-010-017-018-250900-
NORTH CENTRAL WISCONSIN

CITY           SKY/WX    TMP DP  RH WIND       PRES   REMARKS
MANITOWISH WTR CLOUDY    46  46 100 CALM      29.74R
ARBOR VITAE    CLOUDY    46  44  93 CALM      29.73S
WOODRUFF       CLOUDY    46  44  93 CALM      29.73S
RHINELANDER    CLOUDY    48  46  93 CALM      29.73S
EAGLE RIVER    CLOUDY    46  46  97 N5        29.72F
LAND O LAKES   CLOUDY    43  43 100 CALM      29.75S FOG
PHILLIPS       CLOUDY    50  48  95 CALM      29.72S
TOMAHAWK       FOG       41  40  97 CALM      29.73S VSB 1
MEDFORD        CLEAR     46  45  97 NE3       29.71R
MERRILL        MOCLDY    47  47 100 CALM      29.71F
$$

WIZ029-030-035-036-043>047-250900-
CENTRAL WISCONSIN

CITY           SKY/WX    TMP DP  RH WIND       PRES   REMARKS
WAUSAU         PTCLDY    49  47  93 NW5       29.69S
MOSINEE        PTCLDY    48  48 100 N7        29.70F
MARSHFIELD     CLEAR     46  44  93 N6        29.69S
STEVENS POINT  PTCLDY    46  46 100 N5        29.69F
WAUPACA        CLEAR     50  49  95 N3        29.68S
WAUTOMA        CLOUDY    53  49  86 N7        29.67F
WISC RAPIDS    PTCLDY    50  47  89 NE6       29.70S
CAMP DOUGLAS   NOT AVBL
$$

WIZ011>013-019>022-031-037>040-048>050-250900-
NORTHEAST WISCONSIN

CITY           SKY/WX    TMP DP  RH WIND       PRES   REMARKS
ANTIGO         CLOUDY    47  47  99 N6        29.71S
SHAWANO        CLOUDY    53  49  87 N6        29.68S
OCONTO         CLOUDY    50  47  90 N7        29.66S
STURGEON BAY   CLOUDY    50  48  93 N6        29.66F
GREEN BAY      CLEAR     49  49 100 N7        29.65F
MANITOWOC      NOT AVBL
APPLETON       CLOUDY    50  50 100 N12       29.64F
CLINTONVILLE   CLEAR     50  46  87 N5        29.67S
OSHKOSH        CLOUDY    53  49  86 N10       29.64F
$$

WIZ032>034-041-042-053>061-250900-
SOUTHWEST WISCONSIN

CITY           SKY/WX    TMP DP  RH WIND       PRES   REMARKS
LA CROSSE      PTCLDY    49  47  93 CALM      29.69S
SPARTA         CLOUDY    48  48 100 CALM      29.70S
VIROQUA        CLOUDY    51  49  92 MISG      29.68F
BOSCOBEL       CLOUDY    55  49  80 N5        29.68S
PRAIRIE DU CHI MOCLDY    48  46  93 CALM      29.68S
PLATTEVILLE    MOCLDY    51  50  99 N7        29.66S
$$

WIZ056-057-062-063-064-067-068-250900-
SOUTH CENTRAL WISCONSIN

CITY           SKY/WX    TMP DP  RH WIND       PRES   REMARKS
REEDSBURG      CLOUDY    52  51  95 N5        29.67S
BARABOO/DELLS  CLOUDY    53  48  84 N7        29.67S
LONE ROCK      NOT AVBL
MINERAL POINT  CLOUDY    52  52 100 N9        29.65S
MADISON        CLOUDY    53  50  89 N12       29.64S
MIDDLETON      CLOUDY    54  51  90 N6        29.65S
WATERTOWN      CLOUDY    52  52 100 N8        29.62S
MONROE         CLOUDY    52  50  93 N9        29.63S
JANESVILLE     CLOUDY    54  52  94 N9        29.61S
$$

WIZ051-052-058>065-066-070>072-250900-
SOUTHEAST WISCONSIN

CITY           SKY/WX    TMP DP  RH WIND       PRES   REMARKS
MILWAUKEE      MOCLDY    54  50  86 N15       29.58F
WAUKESHA       CLOUDY    50  48  93 N6        29.61S
MILWAUKEE/TIMM   N/A     52  46  82 N10       29.60F
RACINE         MOCLDY    52  48  86 N18G26    29.59S
KENOSHA        MOCLDY    54  50  86 N10       29.57S
FOND DU LAC    CLOUDY    54  49  83 NE12      29.64S
SHEBOYGAN      CLEAR     52  50  93 N16       29.61F
WEST BEND      CLOUDY    52  50  93 N7        29.61F
JUNEAU         CLOUDY    52  50  93 N9        29.64S
$$

LSZ147-162-250900-
LAKE SUPERIOR

STATION/POSITION TIME  TEMP    WIND        PRES    WAVE
                       AIR SEA DIR/SP/G            HT/PER
                 (UTC) (F)     (DEG/KT/KT) (MB)    (FT/S)
$$

LMZ867-665-643>646-250900-
LAKE MICHIGAN

STATION/POSITION TIME  TEMP    WIND        PRES    WAVE
                       AIR SEA DIR/SP/G            HT/PER
                 (UTC) (F)     (DEG/KT/KT) (MB)    (FT/S)
$$

TC  - TEMPERATURE IN CELSIUS
VSB - VISIBILITY IN STATUTE MILES
WCI - WIND CHILL INDEX
HX  - HEAT INDEX





USA.gov is the U.S. government's official web portal to all federal, state and local government web resources and services.